Jsp Amihan — V2GX7 — position and weather

sailwx.info

Track history (hours):
 
Tides and Currents Weather Stations Pressure Air Temp Water Temp Dewpoint Dewpoint Depression Visibility Wind Speed Wind Dir Waves Ship Positions

Jsp Amihan

Last reported at 2017-Nov-16 08:12 UTC. Time now 2017-Nov-20 17:13 UTC.
Position N 25°59' W 079°40'.

Length 139 m; draft 7 m.

Type: Ship. MMSI: 305007000.

Date/timePositionNaut miles runAvg speedWind from/ knotsBaromVisibWave heightAir tempDewpointWater temp
2017-Nov-16 08:12N 25°59' W 079°40'313.2
2017-Nov-16 07:59N 25°58' W 079°43'713.5
2017-Nov-16 07:30N 25°54' W 079°49'612.8
2017-Nov-16 07:00N 25°51' W 079°55'612.3
2017-Nov-16 06:30N 25°48' W 080°01'510.5
2017-Nov-16 06:01N 25°46' W 080°06'4 7.3
2017-Nov-16 05:31N 25°46' W 080°10'0 0.7
2017-Nov-16 04:58N 25°46' W 080°10'0 0.0
2017-Nov-16 04:25N 25°46' W 080°10'0 0.0
2017-Nov-16 03:58N 25°46' W 080°10'0 0.0
2017-Nov-16 03:28N 25°46' W 080°10'0 0.0
2017-Nov-16 02:58N 25°46' W 080°10'0 0.0
2017-Nov-16 02:28N 25°46' W 080°10'0 0.0
2017-Nov-16 01:58N 25°46' W 080°10'0 0.0
2017-Nov-16 01:28N 25°46' W 080°10'0 0.0
2017-Nov-16 00:58N 25°46' W 080°10'0 0.0
2017-Nov-16 00:28N 25°46' W 080°10'0 0.0
2017-Nov-15 23:58N 25°46' W 080°10'0 0.0
2017-Nov-15 23:28N 25°46' W 080°10'0 0.0
2017-Nov-15 22:58N 25°46' W 080°10'0 0.0
2017-Nov-15 22:28N 25°46' W 080°10'0 0.0
2017-Nov-15 21:58N 25°46' W 080°10'0 0.0
2017-Nov-15 21:28N 25°46' W 080°10'0 0.0
2017-Nov-15 21:00N 25°46' W 080°10'1 2.5
2017-Nov-15 20:30N 25°46' W 080°08'510.0
2017-Nov-15 20:00N 25°47' W 080°03'1 2.0
2017-Nov-15 19:30N 25°48' W 080°02'612.2
2017-Nov-15 19:00N 25°51' W 079°56'612.2
2017-Nov-15 18:30N 25°54' W 079°50'612.3
2017-Nov-15 18:00N 25°57' W 079°44'18 0.5
2017-Nov-14 08:34N 26°11' W 079°32'113.6
2017-Nov-14 08:27N 26°10' W 079°33'613.5
2017-Nov-14 08:01N 26°08' W 079°39'713.1
2017-Nov-14 07:30N 26°07' W 079°47'612.8
2017-Nov-14 07:00N 26°07' W 079°54'613.1
2017-Nov-14 06:30N 26°06' W 080°01'510.3
2017-Nov-14 06:00N 26°06' W 080°07'1 2.9
2017-Nov-14 05:30N 26°04' W 080°07'0 0.0
2017-Nov-14 04:58N 26°04' W 080°07'0 0.0
2017-Nov-14 04:25N 26°04' W 080°07'0 0.0
2017-Nov-14 03:58N 26°04' W 080°07'0 0.0
2017-Nov-14 03:28N 26°04' W 080°07'0 0.0
2017-Nov-14 02:55N 26°04' W 080°07'0 0.0
2017-Nov-14 02:25N 26°04' W 080°07'0 0.0
2017-Nov-14 01:58N 26°04' W 080°07'0 0.0
2017-Nov-14 01:28N 26°04' W 080°07'0 0.0
2017-Nov-14 00:58N 26°04' W 080°07'0 0.0
2017-Nov-14 00:27N 26°04' W 080°07'0 0.0
2017-Nov-14 00:00N 26°04' W 080°07'1 2.5
2017-Nov-13 23:30N 26°05' W 080°07'3 6.2
2017-Nov-13 23:00N 26°06' W 080°04'2 3.5
2017-Nov-13 22:29N 26°07' W 080°02'5 9.7
2017-Nov-13 22:00N 26°08' W 079°57'  
2017-Nov-11 03:34N 26°08' W 079°33'113.3
2017-Nov-11 03:30N 26°08' W 079°34'713.4
2017-Nov-11 03:00N 26°07' W 079°41'713.5
2017-Nov-11 02:30N 26°07' W 079°49'713.3
2017-Nov-11 02:00N 26°06' W 079°56'713.3
2017-Nov-11 01:30N 26°05' W 080°03'3 6.5
2017-Nov-11 01:00N 26°05' W 080°07'1 1.1
2017-Nov-11 00:30N 26°04' W 080°07'0 0.0
2017-Nov-10 23:54N 26°04' W 080°07'0 0.0
2017-Nov-10 23:24N 26°04' W 080°07'0 0.0
2017-Nov-10 22:51N 26°04' W 080°07'0 0.0
2017-Nov-10 22:21N 26°04' W 080°07'0 0.0
2017-Nov-10 21:54N 26°04' W 080°07'0 0.0
2017-Nov-10 21:30N 26°04' W 080°07'0 0.0
2017-Nov-10 21:00N 26°04' W 080°07'0 0.0
2017-Nov-10 20:30N 26°04' W 080°07'0 0.0
2017-Nov-10 20:00N 26°04' W 080°07'0 0.0
2017-Nov-10 19:30N 26°04' W 080°07'0 0.0
2017-Nov-10 19:00N 26°04' W 080°07'1 1.1
2017-Nov-10 18:30N 26°05' W 080°07'3 6.4
2017-Nov-10 18:00N 26°06' W 080°03'3 6.5
2017-Nov-10 17:30N 26°06' W 079°60'611.6
2017-Nov-10 17:00N 26°06' W 079°53'612.0
2017-Nov-10 16:30N 26°07' W 079°47'612.0
2017-Nov-10 16:00N 26°08' W 079°40'713.2
2017-Nov-10 15:29N 26°09' W 079°33'913.3
2017-Nov-10 14:50N 26°13' W 079°24'513.4
2017-Nov-10 14:29N 26°15' W 079°19'613.1
2017-Nov-10 14:00N 26°18' W 079°13'4 7.1
2017-Nov-10 13:30N 26°19' W 079°09'713.2
2017-Nov-10 12:59N 26°18' W 079°02'4 8.5
2017-Nov-10 12:29N 26°16' W 078°57'1 1.9
2017-Nov-10 11:59N 26°17' W 078°58'32 1.2
2017-Nov-09 09:37N 26°05' W 079°30'713.7
2017-Nov-09 09:05N 26°01' W 079°37'213.8
2017-Nov-09 08:57N 25°60' W 079°39'613.6
2017-Nov-09 08:30N 25°57' W 079°45'713.4
2017-Nov-09 08:00N 25°53' W 079°51'713.4
2017-Nov-09 07:30N 25°50' W 079°58'713.6
2017-Nov-09 07:00N 25°46' W 080°04'5 9.2
2017-Nov-09 06:30N 25°46' W 080°09'0 0.9
2017-Nov-09 06:00N 25°46' W 080°10'0 0.0
2017-Nov-09 05:29N 25°46' W 080°10'0 0.0
2017-Nov-09 04:56N 25°46' W 080°10'0 0.0
2017-Nov-09 04:30N 25°46' W 080°10'0 0.0
2017-Nov-09 04:00N 25°46' W 080°10'0 0.0
2017-Nov-09 03:30N 25°46' W 080°10'0 0.0
2017-Nov-09 03:00N 25°46' W 080°10'0 0.0
2017-Nov-09 02:29N 25°46' W 080°10'0 0.0
2017-Nov-09 01:59N 25°46' W 080°10'0 0.0
2017-Nov-09 01:29N 25°46' W 080°10'0 0.0
2017-Nov-09 00:56N 25°46' W 080°10'0 0.0
2017-Nov-09 00:29N 25°46' W 080°10'0 0.0
2017-Nov-08 23:59N 25°46' W 080°10'0 0.0
2017-Nov-08 23:29N 25°46' W 080°10'0 0.0
2017-Nov-08 22:59N 25°46' W 080°10'0 0.0
2017-Nov-08 22:26N 25°46' W 080°10'0 0.0
2017-Nov-08 21:59N 25°46' W 080°10'0 0.0
2017-Nov-08 21:29N 25°46' W 080°10'0 0.0
2017-Nov-08 21:00N 25°46' W 080°10'1 1.2
2017-Nov-08 20:30N 25°46' W 080°09'510.3
2017-Nov-08 20:00N 25°47' W 080°03'510.6
2017-Nov-08 19:30N 25°50' W 079°58'612.2
2017-Nov-08 19:00N 25°53' W 079°52'611.9
2017-Nov-08 18:30N 25°56' W 079°47'22 0.6
2017-Nov-07 04:46N 26°11' W 079°30'314.0
2017-Nov-07 04:31N 26°09' W 079°33'713.3
2017-Nov-07 04:00N 26°08' W 079°40'713.1
2017-Nov-07 03:30N 26°07' W 079°48'612.7
2017-Nov-07 03:00N 26°06' W 079°55'612.6
2017-Nov-07 02:30N 26°05' W 080°02'5 9.7
2017-Nov-07 02:00N 26°05' W 080°07'1 2.7
2017-Nov-07 01:31N 26°04' W 080°07'0 0.0
2017-Nov-07 00:59N 26°04' W 080°07'0 0.0
2017-Nov-07 00:29N 26°04' W 080°07'0 0.0
2017-Nov-06 23:59N 26°04' W 080°07'0 0.0
2017-Nov-06 23:29N 26°04' W 080°07'0 0.0
2017-Nov-06 22:59N 26°04' W 080°07'0 0.0
2017-Nov-06 22:29N 26°04' W 080°07'0 0.0
2017-Nov-06 21:59N 26°04' W 080°07'0 0.0
2017-Nov-06 21:29N 26°04' W 080°07'0 0.0
2017-Nov-06 20:59N 26°04' W 080°07'1 2.8
2017-Nov-06 20:30N 26°05' W 080°07'  
Track history (hours):
 
Tides and Currents Weather Stations Pressure Air Temp Water Temp Dewpoint Dewpoint Depression Visibility Wind Speed Wind Dir Waves Ship Positions

Jsp Amihan

Last reported at 2017-Nov-16 08:12 UTC. Time now 2017-Nov-20 17:13 UTC.
Position N 25°59' W 079°40'.

Length 139 m; draft 7 m.

Type: Ship. MMSI: 305007000.

Date/timePositionNaut miles runAvg speedWind from/ knotsBaromVisibWave heightAir tempDewpointWater temp
2017-Nov-16 08:12N 25°59' W 079°40'313.2
2017-Nov-16 07:59N 25°58' W 079°43'713.5
2017-Nov-16 07:30N 25°54' W 079°49'612.8
2017-Nov-16 07:00N 25°51' W 079°55'612.3
2017-Nov-16 06:30N 25°48' W 080°01'510.5
2017-Nov-16 06:01N 25°46' W 080°06'4 7.3
2017-Nov-16 05:31N 25°46' W 080°10'0 0.7
2017-Nov-16 04:58N 25°46' W 080°10'0 0.0
2017-Nov-16 04:25N 25°46' W 080°10'0 0.0
2017-Nov-16 03:58N 25°46' W 080°10'0 0.0
2017-Nov-16 03:28N 25°46' W 080°10'0 0.0
2017-Nov-16 02:58N 25°46' W 080°10'0 0.0
2017-Nov-16 02:28N 25°46' W 080°10'0 0.0
2017-Nov-16 01:58N 25°46' W 080°10'0 0.0
2017-Nov-16 01:28N 25°46' W 080°10'0 0.0
2017-Nov-16 00:58N 25°46' W 080°10'0 0.0
2017-Nov-16 00:28N 25°46' W 080°10'0 0.0
2017-Nov-15 23:58N 25°46' W 080°10'0 0.0
2017-Nov-15 23:28N 25°46' W 080°10'0 0.0
2017-Nov-15 22:58N 25°46' W 080°10'0 0.0
2017-Nov-15 22:28N 25°46' W 080°10'0 0.0
2017-Nov-15 21:58N 25°46' W 080°10'0 0.0
2017-Nov-15 21:28N 25°46' W 080°10'0 0.0
2017-Nov-15 21:00N 25°46' W 080°10'1 2.5
2017-Nov-15 20:30N 25°46' W 080°08'510.0
2017-Nov-15 20:00N 25°47' W 080°03'1 2.0
2017-Nov-15 19:30N 25°48' W 080°02'612.2
2017-Nov-15 19:00N 25°51' W 079°56'612.2
2017-Nov-15 18:30N 25°54' W 079°50'612.3
2017-Nov-15 18:00N 25°57' W 079°44'18 0.5
2017-Nov-14 08:34N 26°11' W 079°32'113.6
2017-Nov-14 08:27N 26°10' W 079°33'613.5
2017-Nov-14 08:01N 26°08' W 079°39'713.1
2017-Nov-14 07:30N 26°07' W 079°47'612.8
2017-Nov-14 07:00N 26°07' W 079°54'613.1
2017-Nov-14 06:30N 26°06' W 080°01'510.3
2017-Nov-14 06:00N 26°06' W 080°07'1 2.9
2017-Nov-14 05:30N 26°04' W 080°07'0 0.0
2017-Nov-14 04:58N 26°04' W 080°07'0 0.0
2017-Nov-14 04:25N 26°04' W 080°07'0 0.0
2017-Nov-14 03:58N 26°04' W 080°07'0 0.0
2017-Nov-14 03:28N 26°04' W 080°07'0 0.0
2017-Nov-14 02:55N 26°04' W 080°07'0 0.0
2017-Nov-14 02:25N 26°04' W 080°07'0 0.0
2017-Nov-14 01:58N 26°04' W 080°07'0 0.0
2017-Nov-14 01:28N 26°04' W 080°07'0 0.0
2017-Nov-14 00:58N 26°04' W 080°07'0 0.0
2017-Nov-14 00:27N 26°04' W 080°07'0 0.0
2017-Nov-14 00:00N 26°04' W 080°07'1 2.5
2017-Nov-13 23:30N 26°05' W 080°07'3 6.2
2017-Nov-13 23:00N 26°06' W 080°04'2 3.5
2017-Nov-13 22:29N 26°07' W 080°02'5 9.7
2017-Nov-13 22:00N 26°08' W 079°57'  
2017-Nov-11 03:34N 26°08' W 079°33'113.3
2017-Nov-11 03:30N 26°08' W 079°34'713.4
2017-Nov-11 03:00N 26°07' W 079°41'713.5
2017-Nov-11 02:30N 26°07' W 079°49'713.3
2017-Nov-11 02:00N 26°06' W 079°56'713.3
2017-Nov-11 01:30N 26°05' W 080°03'3 6.5
2017-Nov-11 01:00N 26°05' W 080°07'1 1.1
2017-Nov-11 00:30N 26°04' W 080°07'0 0.0
2017-Nov-10 23:54N 26°04' W 080°07'0 0.0
2017-Nov-10 23:24N 26°04' W 080°07'0 0.0
2017-Nov-10 22:51N 26°04' W 080°07'0 0.0
2017-Nov-10 22:21N 26°04' W 080°07'0 0.0
2017-Nov-10 21:54N 26°04' W 080°07'0 0.0
2017-Nov-10 21:30N 26°04' W 080°07'0 0.0
2017-Nov-10 21:00N 26°04' W 080°07'0 0.0
2017-Nov-10 20:30N 26°04' W 080°07'0 0.0
2017-Nov-10 20:00N 26°04' W 080°07'0 0.0
2017-Nov-10 19:30N 26°04' W 080°07'0 0.0
2017-Nov-10 19:00N 26°04' W 080°07'1 1.1
2017-Nov-10 18:30N 26°05' W 080°07'3 6.4
2017-Nov-10 18:00N 26°06' W 080°03'3 6.5
2017-Nov-10 17:30N 26°06' W 079°60'611.6
2017-Nov-10 17:00N 26°06' W 079°53'612.0
2017-Nov-10 16:30N 26°07' W 079°47'612.0
2017-Nov-10 16:00N 26°08' W 079°40'713.2
2017-Nov-10 15:29N 26°09' W 079°33'913.3
2017-Nov-10 14:50N 26°13' W 079°24'513.4
2017-Nov-10 14:29N 26°15' W 079°19'613.1
2017-Nov-10 14:00N 26°18' W 079°13'4 7.1
2017-Nov-10 13:30N 26°19' W 079°09'713.2
2017-Nov-10 12:59N 26°18' W 079°02'4 8.5
2017-Nov-10 12:29N 26°16' W 078°57'1 1.9
2017-Nov-10 11:59N 26°17' W 078°58'32 1.2
2017-Nov-09 09:37N 26°05' W 079°30'713.7
2017-Nov-09 09:05N 26°01' W 079°37'213.8
2017-Nov-09 08:57N 25°60' W 079°39'613.6
2017-Nov-09 08:30N 25°57' W 079°45'713.4
2017-Nov-09 08:00N 25°53' W 079°51'713.4
2017-Nov-09 07:30N 25°50' W 079°58'713.6
2017-Nov-09 07:00N 25°46' W 080°04'5 9.2
2017-Nov-09 06:30N 25°46' W 080°09'0 0.9
2017-Nov-09 06:00N 25°46' W 080°10'0 0.0
2017-Nov-09 05:29N 25°46' W 080°10'0 0.0
2017-Nov-09 04:56N 25°46' W 080°10'0 0.0
2017-Nov-09 04:30N 25°46' W 080°10'0 0.0
2017-Nov-09 04:00N 25°46' W 080°10'0 0.0
2017-Nov-09 03:30N 25°46' W 080°10'0 0.0
2017-Nov-09 03:00N 25°46' W 080°10'0 0.0
2017-Nov-09 02:29N 25°46' W 080°10'0 0.0
2017-Nov-09 01:59N 25°46' W 080°10'0 0.0
2017-Nov-09 01:29N 25°46' W 080°10'0 0.0
2017-Nov-09 00:56N 25°46' W 080°10'0 0.0
2017-Nov-09 00:29N 25°46' W 080°10'0 0.0
2017-Nov-08 23:59N 25°46' W 080°10'0 0.0
2017-Nov-08 23:29N 25°46' W 080°10'0 0.0
2017-Nov-08 22:59N 25°46' W 080°10'0 0.0
2017-Nov-08 22:26N 25°46' W 080°10'0 0.0
2017-Nov-08 21:59N 25°46' W 080°10'0 0.0
2017-Nov-08 21:29N 25°46' W 080°10'0 0.0
2017-Nov-08 21:00N 25°46' W 080°10'1 1.2
2017-Nov-08 20:30N 25°46' W 080°09'510.3
2017-Nov-08 20:00N 25°47' W 080°03'510.6
2017-Nov-08 19:30N 25°50' W 079°58'612.2
2017-Nov-08 19:00N 25°53' W 079°52'611.9
2017-Nov-08 18:30N 25°56' W 079°47'22 0.6
2017-Nov-07 04:46N 26°11' W 079°30'314.0
2017-Nov-07 04:31N 26°09' W 079°33'713.3
2017-Nov-07 04:00N 26°08' W 079°40'713.1
2017-Nov-07 03:30N 26°07' W 079°48'612.7
2017-Nov-07 03:00N 26°06' W 079°55'612.6
2017-Nov-07 02:30N 26°05' W 080°02'5 9.7
2017-Nov-07 02:00N 26°05' W 080°07'1 2.7
2017-Nov-07 01:31N 26°04' W 080°07'0 0.0
2017-Nov-07 00:59N 26°04' W 080°07'0 0.0
2017-Nov-07 00:29N 26°04' W 080°07'0 0.0
2017-Nov-06 23:59N 26°04' W 080°07'0 0.0
2017-Nov-06 23:29N 26°04' W 080°07'0 0.0
2017-Nov-06 22:59N 26°04' W 080°07'0 0.0
2017-Nov-06 22:29N 26°04' W 080°07'0 0.0
2017-Nov-06 21:59N 26°04' W 080°07'0 0.0
2017-Nov-06 21:29N 26°04' W 080°07'0 0.0
2017-Nov-06 20:59N 26°04' W 080°07'1 2.8
2017-Nov-06 20:30N 26°05' W 080°07'  

Dump ship's entire track history